Lamar, CO

6:07 PM MST on February 24, 2017 (GMT -0700)
Lamar Municipal

Weather History for KLAA - December, 2012

Change the Weather History Date:

Tuesday, December 25, 2012

  Actual Average Record
Temperature  
Mean Temperature 4 °F 28 °F  
Max Temperature 18 °F 44 °F 74 °F (1971)
Min Temperature -10 °F 12 °F -10 °F (1924)
Degree Days  
Heating Degree Days 61 37  
Month to date heating degree days 782 875  
Since 1 July heating degree days 1861 2091  
Cooling Degree Days 0 0  
Month to date cooling degree days 0 0  
Year to date cooling degree days 1626 1121  
Moisture  
Dew Point 5 °F    
Average Humidity 87    
Maximum Humidity 100    
Minimum Humidity 73    
Precipitation  
Precipitation 0.02 in 0.01 in 0.50 in (1939)
Month to date precipitation 0.07  
Year to date precipitation 6.13  
Sea Level Pressure  
Sea Level Pressure 30.19 in    
Wind  
Wind Speed 9 mph (NNE)    
Max Wind Speed 17 mph    
Max Gust Speed 20 mph    
Visibility 3 miles    
Events Snow    
T = Trace of Precipitation, MM = Missing Value Source: NWS Daily Summary

Daily Weather History Graph

Daily Weather History Graph

Search for Another Location

Airport or City:

Trip Planner

Search our weather history database for the weather conditions in past years. The results will help you decide how hot, cold, wet, or windy it might be!

Date:

Astronomy

Dec. 25, 2012 Rise Set
Actual Time 7:05 AM MST 4:37 PM MST
Civil Twilight 6:35 AM MST 5:06 PM MST
Nautical Twilight 6:02 AM MST 5:39 PM MST
Astronomical Twilight 5:30 AM MST 6:11 PM MST
Moon 2:46 PM MST 4:40 AM MST
Length of Visible Light 10h 30m
Length of Day
9h 31m
Waxing Gibbous, 94% of the Moon is Illuminated
Dec 25
Waxing Gibbous
Dec 28
Full
Jan 4
Last Quarter
Jan 11
New
Jan 18
First Quarter

Hourly Weather History & Observations

Time (MST) Temp. Windchill Dew Point Humidity Pressure Visibility Wind Dir Wind Speed Gust Speed Precip Events Conditions
12:05 AM 15.8 °F 2.1 °F 12.2 °F 86% 29.95 in 1.5 mi NE 12.7 mph - 0.00 in Snow Light Snow
12:17 AM 15.8 °F 2.1 °F 10.4 °F 79% 29.95 in 3.0 mi NE 12.7 mph - 0.00 in Snow Light Snow
12:30 AM 14.0 °F -0.2 °F 10.4 °F 86% 29.95 in 1.8 mi NNE 12.7 mph - 0.00 in Snow Light Snow
12:33 AM 14.0 °F 0.5 °F 10.4 °F 86% 29.96 in 1.0 mi NNE 11.5 mph - 0.00 in Snow Light Snow
12:48 AM 14.0 °F 2.9 °F 10.4 °F 86% 29.96 in 1.5 mi NNE 8.1 mph - 0.00 in Snow Light Snow
12:53 AM 14.0 °F 1.2 °F 10.0 °F 84% 30.02 in 2.0 mi NE 10.4 mph - 0.00 in Snow Light Snow
1:06 AM 14.0 °F 1.2 °F 10.4 °F 86% 29.97 in 1.2 mi NE 10.4 mph - 0.00 in Snow Light Snow
1:16 AM 12.2 °F -3.1 °F 10.4 °F 92% 29.97 in 1.0 mi NNE 13.8 mph - 0.00 in Snow Light Snow
1:23 AM 12.2 °F -1.0 °F 10.4 °F 92% 29.98 in 0.8 mi NE 10.4 mph - 0.00 in Snow Light Snow
1:36 AM 12.2 °F -1.0 °F 8.6 °F 85% 29.99 in 0.8 mi NE 10.4 mph - 0.01 in Snow Light Snow
1:49 AM 12.2 °F -1.8 °F 8.6 °F 85% 30.00 in 0.8 mi NE 11.5 mph - 0.01 in Snow Light Snow
1:53 AM 12.9 °F -0.2 °F 9.0 °F 84% 30.06 in 1.0 mi NE 10.4 mph - 0.01 in Snow Light Snow
2:18 AM 12.2 °F -1.0 °F 8.6 °F 85% 30.01 in 1.2 mi NE 10.4 mph - 0.00 in Snow Light Snow
2:27 AM 12.2 °F -1.8 °F 8.6 °F 85% 30.01 in 1.8 mi NE 11.5 mph - 0.00 in Snow Light Snow
2:53 AM 12.0 °F -4.0 °F 8.1 °F 84% 30.09 in 1.5 mi NE 15.0 mph - 0.01 in Snow Light Snow
3:53 AM 12.0 °F -2.7 °F 8.1 °F 84% 30.12 in 1.2 mi NE 12.7 mph - 0.00 in Snow Light Snow
4:01 AM 12.2 °F -1.8 °F 8.6 °F 85% 30.04 in 1.5 mi NE 11.5 mph - 0.00 in Snow Light Snow
4:07 AM 12.2 °F -3.1 °F 8.6 °F 85% 30.04 in 1.2 mi NE 13.8 mph - 0.00 in Snow Light Snow
4:18 AM 12.2 °F -1.8 °F 8.6 °F 85% 30.05 in 1.0 mi NE 11.5 mph - 0.00 in Snow Light Snow
4:26 AM 12.2 °F -3.1 °F 8.6 °F 85% 30.05 in 1.2 mi NNE 13.8 mph - 0.00 in Snow Light Snow
4:34 AM 12.2 °F -2.5 °F 8.6 °F 85% 30.06 in 0.8 mi NNE 12.7 mph - 0.00 in Snow Light Snow
4:53 AM 12.0 °F -2.0 °F 8.1 °F 84% 30.17 in 0.8 mi NNE 11.5 mph - 0.00 in Snow Light Snow
5:12 AM 12.2 °F -2.5 °F 8.6 °F 85% 30.08 in 1.0 mi North 12.7 mph - 0.00 in Snow Light Snow
5:28 AM 12.2 °F -1.8 °F 8.6 °F 85% 30.09 in 1.2 mi NNE 11.5 mph - 0.00 in Snow Light Snow
5:36 AM 12.2 °F -1.0 °F 8.6 °F 85% 30.09 in 1.5 mi NNE 10.4 mph - 0.00 in Snow Light Snow
5:53 AM 12.0 °F -1.3 °F 8.1 °F 84% 30.22 in 1.5 mi NNE 10.4 mph - 0.00 in Snow Light Snow
6:09 AM 12.2 °F -1.8 °F 8.6 °F 85% 30.11 in 2.0 mi North 11.5 mph - 0.00 in Snow Light Snow
6:25 AM 12.2 °F 0.7 °F 8.6 °F 85% 30.12 in 2.5 mi North 8.1 mph - 0.00 in Snow Light Snow
6:36 AM 12.2 °F -0.2 °F 8.6 °F 85% 30.13 in 3.0 mi North 9.2 mph - 0.00 in Snow Light Snow
6:50 AM 12.2 °F -0.2 °F 8.6 °F 85% 30.13 in 2.5 mi North 9.2 mph - 0.00 in Snow Light Snow
6:53 AM 12.0 °F 0.5 °F 8.1 °F 84% 30.26 in 2.5 mi North 8.1 mph - 0.00 in Snow Light Snow
7:03 AM 12.2 °F -1.0 °F 8.6 °F 85% 30.14 in 1.5 mi NNE 10.4 mph - 0.00 in Snow Light Snow
7:23 AM 12.2 °F -0.2 °F 8.6 °F 85% 30.15 in 2.0 mi North 9.2 mph - 0.00 in Snow Light Snow
7:53 AM 12.9 °F -0.9 °F 8.1 °F 81% 30.29 in 3.0 mi NNE 11.5 mph - 0.00 in Snow Light Snow
8:02 AM 12.2 °F -1.0 °F 8.6 °F 85% 30.17 in 2.0 mi NNE 10.4 mph - 0.00 in Snow Light Snow
8:13 AM 12.2 °F -2.5 °F 8.6 °F 85% 30.17 in 1.2 mi NNE 12.7 mph - 0.00 in Snow Light Snow
8:26 AM 12.2 °F -3.7 °F 8.6 °F 85% 30.18 in 1.2 mi NNE 15.0 mph - 0.00 in Snow Light Snow
8:38 AM 12.2 °F -1.8 °F 8.6 °F 85% 30.19 in 1.5 mi NNE 11.5 mph - 0.00 in Snow Light Snow
8:53 AM 12.9 °F -2.2 °F 7.0 °F 77% 30.33 in 1.5 mi NNE 13.8 mph - 0.00 in Snow Light Snow
9:02 AM 12.2 °F -1.8 °F 6.8 °F 79% 30.21 in 1.8 mi North 11.5 mph - 0.00 in Snow Light Snow
9:12 AM 12.2 °F -1.8 °F 6.8 °F 79% 30.21 in 2.0 mi North 11.5 mph - 0.00 in Snow Light Snow
9:20 AM 12.2 °F -1.8 °F 6.8 °F 79% 30.22 in 1.8 mi North 11.5 mph - 0.00 in Snow Light Snow
9:29 AM 12.2 °F -2.5 °F 6.8 °F 79% 30.22 in 2.0 mi North 12.7 mph - 0.00 in Snow Light Snow
9:53 AM 14.0 °F -1.4 °F 8.1 °F 77% 30.37 in 3.0 mi North 15.0 mph - 0.00 in Snow Light Snow
10:11 AM 14.0 °F -0.8 °F 8.6 °F 79% 30.24 in 2.0 mi NNW 13.8 mph - 0.00 in Snow Light Snow
10:19 AM 14.0 °F -0.2 °F 8.6 °F 79% 30.24 in 1.5 mi NNW 12.7 mph - 0.00 in Snow Light Snow
10:28 AM 14.0 °F -0.8 °F 8.6 °F 79% 30.24 in 1.2 mi NNW 13.8 mph - 0.00 in Snow Light Snow
10:37 AM 14.0 °F -2.0 °F 8.6 °F 79% 30.24 in 1.5 mi NNW 16.1 mph - 0.00 in Snow Light Snow
10:53 AM 15.1 °F -0.1 °F 8.1 °F 74% 30.37 in 1.8 mi North 15.0 mph - 0.00 in Snow Light Snow
11:07 AM 15.8 °F 1.4 °F 8.6 °F 73% 30.23 in 2.5 mi North 13.8 mph - 0.00 in Snow Light Snow
11:17 AM 15.8 °F 1.4 °F 8.6 °F 73% 30.23 in 5.0 mi North 13.8 mph - 0.00 in Snow Light Snow
11:53 AM 16.0 °F 2.9 °F 9.0 °F 74% 30.36 in 2.5 mi North 11.5 mph - 0.00 in Snow Light Snow
12:24 PM 17.6 °F 4.3 °F 10.4 °F 73% 30.22 in 3.0 mi North 12.7 mph - 0.00 in Snow Light Snow
12:53 PM 17.1 °F 5.0 °F 10.0 °F 74% 30.37 in 2.5 mi North 10.4 mph - 0.00 in Snow Light Snow
1:03 PM 17.6 °F 5.0 °F 10.4 °F 73% 30.23 in 3.0 mi North 11.5 mph - 0.00 in Snow Light Snow
1:35 PM 17.6 °F 8.2 °F 10.4 °F 73% 30.23 in 2.0 mi North 6.9 mph - 0.00 in Snow Light Snow
1:42 PM 17.6 °F 6.4 °F 10.4 °F 73% 30.23 in 1.8 mi North 9.2 mph - 0.00 in Snow Light Snow
1:53 PM 17.1 °F 5.0 °F 10.0 °F 74% 30.37 in 2.0 mi North 10.4 mph - 0.00 in Snow Light Snow
2:02 PM 17.6 °F 6.4 °F 10.4 °F 73% 30.23 in 1.8 mi North 9.2 mph - 0.00 in Snow Light Snow
2:11 PM 17.6 °F 6.4 °F 10.4 °F 73% 30.23 in 2.0 mi North 9.2 mph - 0.00 in Snow Light Snow
2:53 PM 18.0 °F 7.7 °F 10.9 °F 74% 30.38 in 2.0 mi NNE 8.1 mph - 0.00 in Snow Light Snow
3:16 PM 17.6 °F 9.3 °F 10.4 °F 73% 30.23 in 1.8 mi North 5.8 mph - 0.00 in Snow Light Snow
3:24 PM 17.6 °F 10.7 °F 10.4 °F 73% 30.23 in 2.5 mi North 4.6 mph - 0.00 in Snow Light Snow
3:34 PM 17.6 °F 9.3 °F 10.4 °F 73% 30.23 in 3.0 mi NNE 5.8 mph - 0.00 in Snow Light Snow
3:53 PM 17.1 °F 11.7 °F 10.0 °F 74% 30.37 in 5.0 mi NE 3.5 mph - 0.00 in   Haze
4:05 PM 15.8 °F - 10.4 °F 79% 30.24 in 9.0 mi Calm Calm - N/A   Overcast
4:24 PM 14.0 °F - 8.6 °F 79% 30.23 in 10.0 mi Calm Calm - N/A   Scattered Clouds
4:53 PM 12.9 °F - 9.0 °F 84% 30.38 in 10.0 mi Calm Calm - N/A   Clear
5:53 PM -2.0 °F -15.4 °F -2.9 °F 96% 30.43 in 8.0 mi SSW 6.9 mph - N/A   Clear
6:48 PM -0.4 °F -13.4 °F -2.2 °F 92% 30.23 in 4.0 mi SSW 6.9 mph - N/A   Partly Cloudy
6:53 PM -0.0 °F -13.0 °F -4.0 °F 83% 30.43 in 4.0 mi SSW 6.9 mph - N/A   Partly Cloudy
7:04 PM -2.2 °F -16.8 °F -7.6 °F 78% 30.24 in 2.0 mi SSW 8.1 mph - N/A   Haze
7:11 PM -4.0 °F -19.0 °F -7.6 °F 85% 30.24 in 1.8 mi SSW 8.1 mph - N/A   Mostly Cloudy
7:23 PM -2.2 °F -16.8 °F -7.6 °F 78% 30.24 in 2.5 mi SSW 8.1 mph - N/A   Overcast
7:32 PM -2.2 °F -15.6 °F -5.8 °F 85% 30.24 in 3.0 mi SSW 6.9 mph - N/A   Mostly Cloudy
7:39 PM -2.2 °F -15.6 °F -5.8 °F 85% 30.24 in 1.8 mi SSW 6.9 mph - N/A   Overcast
7:48 PM -2.2 °F -15.6 °F -7.6 °F 78% 30.24 in 3.0 mi SSW 6.9 mph - N/A   Overcast
7:53 PM -2.9 °F -16.5 °F -7.1 °F 82% 30.44 in 2.5 mi SSW 6.9 mph - N/A   Overcast
8:01 PM -2.2 °F -16.8 °F -7.6 °F 78% 30.24 in 4.0 mi SSW 8.1 mph - N/A   Mostly Cloudy
8:11 PM -0.4 °F -13.4 °F -5.8 °F 78% 30.24 in 8.0 mi SSW 6.9 mph - N/A   Scattered Clouds
8:53 PM -2.0 °F -16.6 °F -6.0 °F 83% 30.43 in 7.0 mi SSW 8.1 mph - N/A   Clear
9:53 PM -4.0 °F -14.6 °F -8.0 °F 83% 30.39 in 10.0 mi East 4.6 mph - N/A   Clear
10:07 PM -5.8 °F - -9.4 °F 84% 30.19 in 6.0 mi Calm Calm - N/A   Partly Cloudy
10:53 PM -5.1 °F -13.6 °F -9.0 °F 83% 30.36 in 9.0 mi ESE 3.5 mph - N/A   Clear
11:02 PM -9.4 °F -24.3 °F -14.8 °F 77% 30.18 in 7.0 mi WSW 6.9 mph - N/A   Scattered Clouds
11:10 PM -9.4 °F -18.6 °F -14.8 °F 77% 30.18 in 7.0 mi West 3.5 mph - N/A   Mostly Cloudy
11:53 PM -9.9 °F -21.5 °F -14.1 °F 82% 30.36 in 9.0 mi SSW 4.6 mph - N/A   Overcast